Terug naar catalogus

COSMOS 1275 DEB

ActiefPO
NORAD 39939·DEBRIS·🇷🇺 Russia

Gelanceerd Jun 4, 1981 vanaf Plesetsk Cosmodrome

Loading…

Volgende Passages (komende 24 uur)

TLE

VerouderendSource: Space-Track

Epoch: Sep 8, 2026, 02:46 UTC

1 39939U 81053MZ  26251.11562150  .00000434  00000-0  40587-3 0  9995
2 39939  82.8191  29.3027 0069098 283.4134  75.9328 13.78724220616175

Volg COSMOS 1275 DEB in realtime met AllMySat

Download on the App Store